• In Hungary
  • List of Countries
  • For 7 days
  • Water Temperature
  • Satellite Maps
  • Weather Map
  • News
  • Weather Widgets
  • user-avatar
    Login

    Hourly Weather Newry

    Today, 24 November, Friday

    Time Temperature Precipitation Wind Pressure Humidity
    00:00 -1°C° 0 mm 3 mps 744 mmHg 88%
    01:00 -1°C° 0 mm 3 mps 745 mmHg 88%
    02:00 -1°C° 0 mm 3 mps 745 mmHg 88%
    03:00 -2°C° 0 mm 4 mps 745 mmHg 89%
    04:00 -2°C° 0 mm 4 mps 746 mmHg 89%
    05:00 -2°C° 0 mm 4 mps 746 mmHg 89%
    06:00 -2°C° 0 mm 4 mps 746 mmHg 89%
    07:00 -2°C° 0 mm 4 mps 747 mmHg 88%
    08:00 -1°C° 0 mm 4 mps 747 mmHg 87%
    09:00 -1°C° 0 mm 4 mps 748 mmHg 86%
    10:00 0°C° 0 mm 4 mps 748 mmHg 82%
    11:00 +1°C° 0 mm 4 mps 748 mmHg 78%
    12:00 +3°C° 0 mm 4 mps 748 mmHg 74%
    13:00 +3°C° 0.1 mm 4 mps 748 mmHg 75%
    14:00 +3°C° 0.1 mm 4 mps 748 mmHg 75%
    15:00 +3°C° 0.1 mm 4 mps 748 mmHg 76%
    16:00 +1°C° 0 mm 4 mps 748 mmHg 78%
    17:00 0°C° 0 mm 4 mps 748 mmHg 80%
    18:00 -1°C° 0 mm 5 mps 749 mmHg 82%
    19:00 -1°C° 0 mm 5 mps 749 mmHg 82%
    20:00 -1°C° 0 mm 5 mps 749 mmHg 81%
    21:00 -2°C° 0 mm 5 mps 749 mmHg 81%
    22:00 -2°C° 0 mm 5 mps 750 mmHg 81%
    23:00 -2°C° 0 mm 5 mps 750 mmHg 82%

    Tomorrow, 25 November, Saturday

    Time Temperature Precipitation Wind Pressure Humidity
    00:00 -2°C° 0 mm 5 mps 750 mmHg 82%
    01:00 -2°C° 0 mm 5 mps 750 mmHg 82%
    02:00 -1°C° 0 mm 5 mps 751 mmHg 82%
    03:00 -1°C° 0 mm 5 mps 751 mmHg 82%
    04:00 -1°C° 0 mm 5 mps 751 mmHg 81%
    05:00 -2°C° 0 mm 6 mps 752 mmHg 80%
    06:00 -2°C° 0 mm 6 mps 752 mmHg 79%
    07:00 -2°C° 0 mm 6 mps 753 mmHg 79%
    08:00 -2°C° 0 mm 6 mps 753 mmHg 78%
    09:00 -2°C° 0 mm 6 mps 754 mmHg 78%
    10:00 -1°C° 0 mm 6 mps 754 mmHg 73%
    11:00 0°C° 0 mm 7 mps 755 mmHg 69%
    12:00 +2°C° 0 mm 7 mps 755 mmHg 65%
    13:00 +2°C° 0 mm 7 mps 755 mmHg 66%
    14:00 +2°C° 0 mm 7 mps 755 mmHg 68%
    15:00 +1°C° 0 mm 6 mps 756 mmHg 70%
    16:00 +1°C° 0 mm 6 mps 756 mmHg 74%
    17:00 -1°C° 0 mm 6 mps 756 mmHg 78%
    18:00 -2°C° 0 mm 6 mps 757 mmHg 81%
    19:00 -2°C° 0 mm 6 mps 757 mmHg 82%
    20:00 -2°C° 0 mm 6 mps 757 mmHg 82%
    21:00 -2°C° 0 mm 6 mps 758 mmHg 82%
    22:00 -2°C° 0 mm 6 mps 758 mmHg 82%
    23:00 -2°C° 0 mm 6 mps 758 mmHg 82%

    Day after tomorrow, 26 November, Sunday

    Time Temperature Precipitation Wind Pressure Humidity
    00:00 -2°C° 0 mm 6 mps 758 mmHg 82%
    01:00 -2°C° 0 mm 6 mps 758 mmHg 82%
    02:00 -2°C° 0 mm 6 mps 758 mmHg 82%
    03:00 -2°C° 0 mm 6 mps 759 mmHg 83%
    04:00 -1°C° 0 mm 6 mps 759 mmHg 83%
    05:00 0°C° 0 mm 5 mps 759 mmHg 83%
    06:00 +1°C° 0 mm 5 mps 759 mmHg 83%
    07:00 0°C° 0 mm 5 mps 759 mmHg 86%
    08:00 0°C° 0 mm 5 mps 760 mmHg 88%
    09:00 -1°C° 0 mm 4 mps 760 mmHg 90%
    10:00 0°C° 0 mm 4 mps 760 mmHg 87%
    11:00 +1°C° 0 mm 5 mps 760 mmHg 84%
    12:00 +2°C° 0 mm 5 mps 760 mmHg 81%
    13:00 +3°C° 0 mm 5 mps 759 mmHg 83%
    14:00 +3°C° 0 mm 5 mps 759 mmHg 85%
    15:00 +3°C° 0 mm 5 mps 758 mmHg 87%
    16:00 +3°C° 0.1 mm 6 mps 758 mmHg 88%
    17:00 +3°C° 0.1 mm 7 mps 757 mmHg 88%
    18:00 +4°C° 0.1 mm 8 mps 756 mmHg 89%
    19:00 +4°C° 0.6 mm 8 mps 756 mmHg 90%
    20:00 +3°C° 0.6 mm 9 mps 755 mmHg 90%
    21:00 +5°C° 0.6 mm 9 mps 754 mmHg 91%
    22:00 +5°C° 0.3 mm 9 mps 754 mmHg 91%
    23:00 +5°C° 0.3 mm 8 mps 754 mmHg 91%

    27 November, Monday

    Time Temperature Precipitation Wind Pressure Humidity
    00:00 +5°C° 0.3 mm 7 mps 753 mmHg 91%
    01:00 +4°C° 0.1 mm 7 mps 753 mmHg 90%
    02:00 +4°C° 0.1 mm 6 mps 754 mmHg 89%
    03:00 +3°C° 0.1 mm 6 mps 754 mmHg 89%
    04:00 +3°C° 0 mm 6 mps 754 mmHg 89%
    05:00 +2°C° 0 mm 6 mps 754 mmHg 88%
    06:00 +2°C° 0 mm 6 mps 755 mmHg 88%
    07:00 +2°C° 0 mm 6 mps 755 mmHg 88%
    08:00 +2°C° 0 mm 5 mps 755 mmHg 89%
    09:00 +1°C° 0 mm 5 mps 756 mmHg 89%
    10:00 +2°C° 0 mm 5 mps 755 mmHg 87%
    11:00 +3°C° 0 mm 5 mps 755 mmHg 84%
    12:00 +4°C° 0 mm 6 mps 755 mmHg 82%
    13:00 +4°C° 0.1 mm 6 mps 755 mmHg 84%
    14:00 +4°C° 0.1 mm 6 mps 754 mmHg 85%
    15:00 +4°C° 0.1 mm 7 mps 754 mmHg 87%
    16:00 +4°C° 0.1 mm 6 mps 753 mmHg 87%
    17:00 +3°C° 0.1 mm 6 mps 753 mmHg 88%
    18:00 +3°C° 0.1 mm 6 mps 752 mmHg 89%
    19:00 +3°C° 0.1 mm 7 mps 751 mmHg 89%
    20:00 +4°C° 0.1 mm 8 mps 750 mmHg 88%
    21:00 +4°C° 0.1 mm 8 mps 749 mmHg 87%
    22:00 +3°C° 0.4 mm 9 mps 748 mmHg 87%
    23:00 +3°C° 0.4 mm 9 mps 747 mmHg 87%

    28 November, Tuesday

    Time Temperature Precipitation Wind Pressure Humidity
    00:00 +3°C° 0.4 mm 10 mps 746 mmHg 87%
    01:00 +2°C° 0.8 mm 9 mps 745 mmHg 86%
    02:00 +2°C° 0.8 mm 8 mps 744 mmHg 85%
    03:00 +2°C° 0.8 mm 7 mps 743 mmHg 84%
    04:00 +2°C° 0.7 mm 8 mps 742 mmHg 83%
    05:00 +3°C° 0.7 mm 9 mps 742 mmHg 83%
    06:00 +5°C° 0.7 mm 10 mps 741 mmHg 83%
    07:00 +3°C° 0.2 mm 9 mps 742 mmHg 83%
    08:00 +4°C° 0.2 mm 8 mps 742 mmHg 84%
    09:00 +4°C° 0.2 mm 8 mps 742 mmHg 85%
    10:00 +5°C° 0.1 mm 8 mps 743 mmHg 83%
    11:00 +5°C° 0.1 mm 9 mps 744 mmHg 81%
    12:00 +5°C° 0.1 mm 9 mps 744 mmHg 80%
    13:00 +5°C° 0.1 mm 9 mps 745 mmHg 79%
    14:00 +3°C° 0.1 mm 9 mps 746 mmHg 78%
    15:00 +3°C° 0.1 mm 10 mps 746 mmHg 77%
    16:00 +2°C° 0 mm 9 mps 747 mmHg 78%
    17:00 +1°C° 0 mm 9 mps 747 mmHg 79%
    18:00 0°C° 0 mm 8 mps 748 mmHg 79%
    19:00 0°C° 0.1 mm 8 mps 748 mmHg 79%
    20:00 0°C° 0.1 mm 8 mps 748 mmHg 79%
    21:00 0°C° 0.1 mm 8 mps 748 mmHg 79%
    22:00 0°C° 0.1 mm 7 mps 749 mmHg 79%
    23:00 0°C° 0.1 mm 7 mps 749 mmHg 78%

    29 November, Wednesday

    Time Temperature Precipitation Wind Pressure Humidity
    00:00 0°C° 0.1 mm 7 mps 749 mmHg 78%
    01:00 0°C° 0 mm 7 mps 750 mmHg 79%
    02:00 0°C° 0 mm 7 mps 750 mmHg 79%
    03:00 0°C° 0 mm 8 mps 750 mmHg 80%
    04:00 0°C° 0.1 mm 8 mps 751 mmHg 80%
    05:00 0°C° 0.1 mm 7 mps 751 mmHg 80%
    06:00 0°C° 0.1 mm 7 mps 751 mmHg 80%
    07:00 0°C° 0 mm 7 mps 752 mmHg 79%
    08:00 0°C° 0 mm 8 mps 752 mmHg 79%
    09:00 0°C° 0 mm 8 mps 752 mmHg 79%
    10:00 +1°C° 0 mm 8 mps 752 mmHg 77%
    11:00 +2°C° 0 mm 8 mps 753 mmHg 75%
    12:00 +2°C° 0 mm 8 mps 753 mmHg 73%
    13:00 +2°C° 0.1 mm 8 mps 753 mmHg 75%
    14:00 +2°C° 0.1 mm 8 mps 754 mmHg 76%
    15:00 +2°C° 0.1 mm 8 mps 754 mmHg 77%
    16:00 +1°C° 0.1 mm 8 mps 754 mmHg 78%
    17:00 0°C° 0.1 mm 7 mps 755 mmHg 79%
    18:00 -1°C° 0.1 mm 7 mps 755 mmHg 80%
    19:00 -1°C° 0 mm 7 mps 755 mmHg 81%
    20:00 -2°C° 0 mm 6 mps 755 mmHg 81%
    21:00 -2°C° 0 mm 6 mps 756 mmHg 82%
    22:00 -1°C° 0 mm 5 mps 756 mmHg 83%
    23:00 -1°C° 0 mm 5 mps 756 mmHg 84%
    Show more